PLF102 UTDD-EPWA

Flight info

Callsign PLF102
Flight time 6h 24m
Altitude 34000
Route SOPNO DCT OKDOR DCT INDUD DCT MANAT/N0460F340 DCT AKRAM DCT DOMOL DCT BABUM DCT KRS DCT DUKAN DCT SULEL DCT GILAB DCT TELLI DCT VETEN DCT SEVAN DCT AKUTU DCT LEGDO DCT TBN DCT ARSUG DCT CRM DCT SIN DCT OTKOT DCT ABSAX DCT UDROS DCT DINRO DCT KARIL DCT KENIN DCT ORTEB DCT KONZI DCT LOGDA
Aircraft B738/M-SDE2E3FGHIRWXY/LB1

Departure

Time 2026-04-20 11:30
Airport Dushanbe International Airport (UTDD)

Arrival

Time 2026-04-20 17:54
Airport Warsaw Chopin Airport (EPWA)
Time Latitude Longitude Altitude Speed Heading
2026-04-20 10:56 38.54744 68.81860 2608 ft 0 kts 269°
2026-04-20 11:25 38.54743 68.81844 2607 ft 4 kts 269°
2026-04-20 11:25 38.54741 68.81795 2607 ft 5 kts 251°
2026-04-20 11:25 38.54714 68.81779 2607 ft 4 kts 179°
2026-04-20 11:25 38.54688 68.81752 2607 ft 6 kts 266°
2026-04-20 11:26 38.54693 68.81682 2607 ft 9 kts 271°
2026-04-20 11:26 38.54694 68.81587 2607 ft 12 kts 271°
2026-04-20 11:26 38.54695 68.81468 2607 ft 14 kts 265°
2026-04-20 11:26 38.54682 68.81332 2607 ft 16 kts 270°
2026-04-20 11:27 38.54683 68.81175 2607 ft 18 kts 270°
2026-04-20 11:27 38.54684 68.81006 2607 ft 19 kts 270°
2026-04-20 11:27 38.54684 68.80841 2607 ft 17 kts 270°
2026-04-20 11:27 38.54684 68.80705 2607 ft 9 kts 270°
2026-04-20 11:28 38.54641 68.80668 2606 ft 9 kts 179°
2026-04-20 11:28 38.54555 68.80669 2606 ft 15 kts 180°
2026-04-20 11:28 38.54443 68.80670 2605 ft 15 kts 180°
2026-04-20 11:28 38.54375 68.80682 2605 ft 7 kts 115°
2026-04-20 11:29 38.54373 68.80744 2605 ft 6 kts 90°
2026-04-20 11:29 38.54373 68.80878 2605 ft 41 kts 90°
2026-04-20 11:29 38.54372 68.81582 2606 ft 114 kts 90°
2026-04-20 11:29 38.54370 68.82875 2607 ft 175 kts 90°
2026-04-20 11:30 38.54357 68.84439 3329 ft 176 kts 91°
2026-04-20 11:30 38.54327 68.85976 4122 ft 175 kts 91°
2026-04-20 11:30 38.54311 68.87517 4747 ft 181 kts 90°
2026-04-20 11:30 38.54301 68.89130 5462 ft 181 kts 90°
2026-04-20 11:31 38.54295 68.90699 6121 ft 184 kts 90°
2026-04-20 11:31 38.54290 68.92390 6607 ft 198 kts 91°
2026-04-20 11:31 38.54283 68.94241 7008 ft 219 kts 91°
2026-04-20 11:31 38.54281 68.96248 7515 ft 235 kts 90°
2026-04-20 11:32 38.54293 68.98381 8149 ft 247 kts 90°
2026-04-20 11:32 38.54320 69.00551 8933 ft 251 kts 90°
2026-04-20 11:32 38.54335 69.02769 9729 ft 253 kts 91°
2026-04-20 11:32 38.54227 69.05019 10488 ft 257 kts 103°
2026-04-20 11:33 38.53576 69.07102 11220 ft 258 kts 125°
2026-04-20 11:33 38.52400 69.08809 12016 ft 258 kts 139°
2026-04-20 11:33 38.50983 69.10160 12758 ft 260 kts 152°
2026-04-20 11:33 38.49292 69.10916 13502 ft 260 kts 173°
2026-04-20 11:34 38.47474 69.11019 14202 ft 263 kts 181°
2026-04-20 11:34 38.45638 69.10994 14841 ft 268 kts 182°
2026-04-20 11:34 38.43773 69.10968 15524 ft 272 kts 182°
2026-04-20 11:34 38.41890 69.10915 16180 ft 275 kts 186°
2026-04-20 11:35 38.40023 69.10464 16814 ft 276 kts 202°
2026-04-20 11:35 38.38347 69.09295 17455 ft 276 kts 220°
2026-04-20 11:35 38.36942 69.07637 18009 ft 280 kts 230°
2026-04-20 11:35 38.35813 69.05630 18133 ft 282 kts 246°
2026-04-20 11:36 38.35254 69.03230 18639 ft 286 kts 262°
2026-04-20 11:36 38.35079 69.00648 19016 ft 298 kts 269°
2026-04-20 11:36 38.35054 68.97968 19374 ft 311 kts 270°
2026-04-20 11:36 38.35070 68.95165 19695 ft 325 kts 271°
2026-04-20 11:37 38.35113 68.92242 20008 ft 339 kts 274°
2026-04-20 11:37 38.36196 68.86189 20626 ft 367 kts 291°
2026-04-20 11:37 38.37381 68.83237 20901 ft 381 kts 301°
2026-04-20 11:38 38.38988 68.80575 21474 ft 387 kts 310°
2026-04-20 11:38 38.40872 68.78088 22124 ft 391 kts 313°
2026-04-20 11:38 38.42839 68.75707 22732 ft 394 kts 315°
2026-04-20 11:38 38.44866 68.73329 23339 ft 397 kts 315°
2026-04-20 11:39 38.46908 68.70944 23915 ft 400 kts 315°
2026-04-20 11:39 38.48919 68.68524 24486 ft 402 kts 313°
2026-04-20 11:39 38.50748 68.65820 25002 ft 403 kts 304°
2026-04-20 11:39 38.52153 68.62769 25552 ft 403 kts 294°
2026-04-20 11:40 38.53160 68.59407 26096 ft 405 kts 286°
2026-04-20 11:40 38.53813 68.55953 26621 ft 407 kts 281°
2026-04-20 11:40 38.54243 68.52357 27144 ft 409 kts 276°
2026-04-20 11:40 38.54426 68.48777 27658 ft 411 kts 272°
2026-04-20 11:41 38.54474 68.45114 28145 ft 414 kts 271°
2026-04-20 11:41 38.54469 68.41439 28618 ft 417 kts 271°
2026-04-20 11:41 38.54446 68.37745 29110 ft 419 kts 270°
2026-04-20 11:41 38.54421 68.33965 29600 ft 422 kts 270°
2026-04-20 11:42 38.54400 68.30219 30089 ft 424 kts 270°
2026-04-20 11:42 38.54384 68.26475 30476 ft 428 kts 270°
2026-04-20 11:42 38.54375 68.22683 30881 ft 431 kts 270°
2026-04-20 11:42 38.54368 68.18877 31359 ft 432 kts 270°
2026-04-20 11:43 38.54364 68.14997 31685 ft 437 kts 270°
2026-04-20 11:43 38.54360 68.11161 32079 ft 440 kts 270°
2026-04-20 11:43 38.54355 68.07229 32471 ft 443 kts 270°
2026-04-20 11:43 38.54409 68.03330 33105 ft 439 kts 272°
2026-04-20 11:44 38.54561 67.99482 33903 ft 432 kts 273°
2026-04-20 11:44 38.54756 67.95697 34195 ft 432 kts 274°
2026-04-20 11:44 38.54969 67.91887 34563 ft 432 kts 274°
2026-04-20 11:44 38.55182 67.88046 35131 ft 428 kts 274°
2026-04-20 11:45 38.55381 67.84335 35698 ft 422 kts 274°
2026-04-20 11:45 38.55576 67.80580 35972 ft 424 kts 274°
2026-04-20 11:45 38.55762 67.76864 36179 ft 423 kts 274°
2026-04-20 11:45 38.55947 67.73065 36223 ft 422 kts 274°
2026-04-20 11:46 38.56290 67.65710 36237 ft 417 kts 274°
2026-04-20 11:46 38.56624 67.58338 36241 ft 417 kts 274°
2026-04-20 11:47 38.56952 67.50932 36239 ft 417 kts 274°
2026-04-20 11:47 38.57274 67.43556 36242 ft 417 kts 274°
2026-04-20 11:48 38.57589 67.36230 36239 ft 416 kts 274°
2026-04-20 11:48 38.57903 67.28864 36200 ft 417 kts 274°
2026-04-20 11:49 38.58211 67.21496 36193 ft 416 kts 273°
2026-04-20 11:49 38.58512 67.14174 36186 ft 415 kts 273°
2026-04-20 11:50 38.58811 67.06787 36188 ft 416 kts 273°
2026-04-20 11:50 38.59103 66.99477 36194 ft 414 kts 273°
2026-04-20 11:51 38.59392 66.92099 36167 ft 415 kts 273°
2026-04-20 11:51 38.59676 66.84774 36136 ft 414 kts 273°
2026-04-20 11:52 38.59954 66.77451 36123 ft 414 kts 273°
2026-04-20 11:52 38.60226 66.70143 36085 ft 412 kts 273°
2026-04-20 11:53 38.60492 66.62873 36050 ft 412 kts 274°
2026-04-20 11:53 38.60753 66.55581 35999 ft 413 kts 273°
2026-04-20 11:54 38.61008 66.48286 35961 ft 412 kts 273°
2026-04-20 11:54 38.61261 66.41024 35935 ft 412 kts 273°
2026-04-20 11:55 38.61517 66.33717 35916 ft 412 kts 273°
2026-04-20 11:55 38.61824 66.26453 35899 ft 410 kts 275°
2026-04-20 11:56 38.62786 66.19305 35907 ft 410 kts 283°
2026-04-20 11:56 38.64335 66.12318 35878 ft 411 kts 285°
2026-04-20 11:57 38.66000 66.05355 35874 ft 409 kts 286°
2026-04-20 11:57 38.67629 65.98443 35866 ft 407 kts 285°
2026-04-20 11:58 38.69232 65.91501 35858 ft 408 kts 285°
2026-04-20 11:58 38.70810 65.84581 35857 ft 407 kts 285°
2026-04-20 11:59 38.72385 65.77625 35847 ft 406 kts 285°
2026-04-20 11:59 38.73943 65.70712 35850 ft 407 kts 285°
2026-04-20 12:00 38.75509 65.63736 35842 ft 407 kts 285°
2026-04-20 12:00 38.77065 65.56788 35831 ft 407 kts 285°
2026-04-20 12:01 38.78604 65.49891 35824 ft 405 kts 285°
2026-04-20 12:01 38.80154 65.42928 35821 ft 405 kts 285°
2026-04-20 12:02 38.81688 65.36017 35818 ft 405 kts 285°
2026-04-20 12:02 38.83221 65.29082 35826 ft 404 kts 284°
2026-04-20 12:03 38.84738 65.22201 35822 ft 403 kts 284°
2026-04-20 12:03 38.86247 65.15331 35823 ft 402 kts 284°
2026-04-20 12:04 38.87759 65.08429 35821 ft 402 kts 284°
2026-04-20 12:04 38.89256 65.01576 35815 ft 402 kts 284°
2026-04-20 12:05 38.90756 64.94684 35805 ft 401 kts 284°
2026-04-20 12:05 38.92250 64.87801 35809 ft 400 kts 284°
2026-04-20 12:06 38.93732 64.80962 35811 ft 399 kts 284°
2026-04-20 12:06 38.95215 64.74076 35813 ft 399 kts 284°
2026-04-20 12:07 38.96684 64.67239 35806 ft 401 kts 284°
2026-04-20 12:07 38.98155 64.60375 35801 ft 400 kts 284°
2026-04-20 12:08 38.99629 64.53478 35798 ft 401 kts 284°
2026-04-20 12:08 39.01094 64.46603 35790 ft 399 kts 284°
2026-04-20 12:09 39.02552 64.39748 35789 ft 396 kts 284°
2026-04-20 12:09 39.03988 64.32967 35791 ft 398 kts 283°
2026-04-20 12:10 39.05434 64.26108 35784 ft 397 kts 283°
2026-04-20 12:10 39.06875 64.19263 35776 ft 396 kts 284°
2026-04-20 12:11 39.08311 64.12467 35780 ft 395 kts 284°
2026-04-20 12:11 39.09846 64.05720 35781 ft 396 kts 285°
2026-04-20 12:12 39.11418 63.98969 35780 ft 395 kts 285°
2026-04-20 12:12 39.12993 63.92168 35780 ft 395 kts 285°
2026-04-20 12:13 39.14534 63.85442 35774 ft 395 kts 285°
2026-04-20 12:13 39.16080 63.78654 35759 ft 394 kts 285°
2026-04-20 12:14 39.17603 63.71940 35754 ft 393 kts 284°
2026-04-20 12:14 39.19133 63.65179 35754 ft 394 kts 284°
2026-04-20 12:15 39.20651 63.58449 35752 ft 391 kts 284°
2026-04-20 12:15 39.22165 63.51712 35752 ft 393 kts 284°
2026-04-20 12:16 39.23678 63.44958 35750 ft 392 kts 284°
2026-04-20 12:16 39.25179 63.38248 35749 ft 391 kts 284°
2026-04-20 12:17 39.26685 63.31489 35745 ft 392 kts 283°
2026-04-20 12:17 39.28168 63.24807 35743 ft 389 kts 284°
2026-04-20 12:18 39.29655 63.18068 35749 ft 392 kts 283°
2026-04-20 12:18 39.31144 63.11328 35741 ft 391 kts 284°
2026-04-20 12:19 39.32623 63.04605 35745 ft 390 kts 283°
2026-04-20 12:19 39.34095 62.97899 35745 ft 390 kts 283°
2026-04-20 12:20 39.35558 62.91214 35747 ft 388 kts 283°
2026-04-20 12:20 39.37021 62.84497 35751 ft 388 kts 283°
2026-04-20 12:21 39.38477 62.77803 35749 ft 388 kts 283°
2026-04-20 12:21 39.39920 62.71147 35748 ft 388 kts 283°
2026-04-20 12:22 39.41361 62.64463 35748 ft 386 kts 283°
2026-04-20 12:22 39.42798 62.57786 35749 ft 387 kts 283°
2026-04-20 12:23 39.44236 62.51098 35745 ft 386 kts 283°
2026-04-20 12:23 39.45664 62.44425 35735 ft 385 kts 283°
2026-04-20 12:24 39.47089 62.37741 35729 ft 386 kts 283°
2026-04-20 12:24 39.48514 62.31044 35733 ft 385 kts 282°
2026-04-20 12:25 39.49928 62.24384 35734 ft 386 kts 282°
2026-04-20 12:25 39.51343 62.17706 35734 ft 386 kts 282°
2026-04-20 12:26 39.52756 62.11000 35734 ft 383 kts 282°
2026-04-20 12:26 39.54153 62.04348 35737 ft 383 kts 282°
2026-04-20 12:27 39.55542 61.97716 35739 ft 383 kts 282°
2026-04-20 12:27 39.56934 61.91045 35736 ft 384 kts 282°
2026-04-20 12:28 39.58320 61.84385 35743 ft 385 kts 282°
2026-04-20 12:28 39.59700 61.77728 35741 ft 383 kts 281°
2026-04-20 12:29 39.61081 61.71059 35744 ft 382 kts 281°
2026-04-20 12:29 39.62454 61.64407 35744 ft 384 kts 282°
2026-04-20 12:30 39.63823 61.57744 35744 ft 383 kts 281°
2026-04-20 12:30 39.65187 61.51087 35745 ft 382 kts 282°
2026-04-20 12:31 39.66553 61.44398 35746 ft 383 kts 282°
2026-04-20 12:31 39.67905 61.37754 35747 ft 386 kts 282°
2026-04-20 12:32 39.69264 61.31059 35746 ft 384 kts 281°
2026-04-20 12:32 39.70617 61.24382 35747 ft 384 kts 281°
2026-04-20 12:33 39.71975 61.17648 35746 ft 384 kts 281°
2026-04-20 12:33 39.73313 61.10981 35755 ft 385 kts 281°
2026-04-20 12:34 39.74652 61.04285 35761 ft 386 kts 281°
2026-04-20 12:34 39.75995 60.97567 35764 ft 385 kts 281°
2026-04-20 12:35 39.77329 60.90871 35762 ft 383 kts 281°
2026-04-20 12:35 39.78651 60.84200 35755 ft 383 kts 280°
2026-04-20 12:36 39.79985 60.77465 35753 ft 385 kts 281°
2026-04-20 12:36 39.81305 60.70770 35753 ft 383 kts 281°
2026-04-20 12:37 39.81962 60.67429 35525 ft 384 kts 280°
2026-04-20 12:37 39.82620 60.64072 35705 ft 386 kts 280°
2026-04-20 12:37 39.83276 60.60716 35951 ft 389 kts 281°
2026-04-20 12:37 39.83939 60.57325 35696 ft 385 kts 280°
2026-04-20 12:38 39.84604 60.53922 35985 ft 388 kts 280°
2026-04-20 12:38 39.85257 60.50571 35634 ft 385 kts 281°
2026-04-20 12:38 39.85916 60.47187 35994 ft 386 kts 281°
2026-04-20 12:38 39.86571 60.43816 35794 ft 387 kts 280°
2026-04-20 12:39 39.88522 60.33749 35750 ft 388 kts 279°
2026-04-20 12:40 39.89467 60.26864 35757 ft 384 kts 272°
2026-04-20 12:40 39.89686 60.19983 35759 ft 382 kts 269°
2026-04-20 12:41 39.89719 60.13122 35762 ft 381 kts 268°
2026-04-20 12:41 39.89751 60.06214 35763 ft 383 kts 268°
2026-04-20 12:42 39.89794 59.99332 35765 ft 380 kts 268°
2026-04-20 12:42 39.89845 59.92432 35766 ft 382 kts 268°
2026-04-20 12:43 39.89893 59.85552 35766 ft 380 kts 268°
2026-04-20 12:43 39.89939 59.78680 35769 ft 381 kts 269°
2026-04-20 12:44 39.89980 59.71820 35773 ft 380 kts 269°
2026-04-20 12:44 39.90016 59.64958 35772 ft 381 kts 269°
2026-04-20 12:45 39.90048 59.58081 35772 ft 381 kts 268°
2026-04-20 12:45 39.90078 59.51210 35772 ft 382 kts 269°
2026-04-20 12:46 39.90105 59.44360 35773 ft 379 kts 268°
2026-04-20 12:46 39.90129 59.37534 35771 ft 380 kts 268°
2026-04-20 12:47 39.90147 59.30633 35766 ft 380 kts 268°
2026-04-20 12:47 39.90163 59.23791 35761 ft 379 kts 268°
2026-04-20 12:48 39.90171 59.16951 35757 ft 381 kts 268°
2026-04-20 12:48 39.90175 59.10120 35755 ft 379 kts 268°
2026-04-20 12:49 39.90176 59.03267 35752 ft 378 kts 267°
2026-04-20 12:49 39.90174 58.96425 35752 ft 378 kts 268°
2026-04-20 12:50 39.90168 58.89615 35753 ft 380 kts 267°
2026-04-20 12:50 39.90159 58.82767 35755 ft 379 kts 268°
2026-04-20 12:51 39.90144 58.75924 35754 ft 379 kts 267°
2026-04-20 12:51 39.90125 58.69130 35755 ft 379 kts 268°
2026-04-20 12:52 39.90102 58.62257 35755 ft 377 kts 268°
2026-04-20 12:52 39.90077 58.55480 35759 ft 379 kts 267°
2026-04-20 12:53 39.90049 58.48604 35765 ft 379 kts 267°
2026-04-20 12:53 39.90016 58.41748 35769 ft 379 kts 267°
2026-04-20 12:54 39.89977 58.34922 35772 ft 378 kts 266°
2026-04-20 12:54 39.89935 58.28122 35773 ft 379 kts 266°
2026-04-20 12:55 39.89889 58.21229 35772 ft 379 kts 266°
2026-04-20 12:55 39.89838 58.14453 35771 ft 377 kts 266°
2026-04-20 12:56 39.89782 58.07607 35771 ft 379 kts 266°
2026-04-20 12:56 39.89723 58.00799 35770 ft 377 kts 266°
2026-04-20 12:57 39.89664 57.93973 35771 ft 380 kts 266°
2026-04-20 12:57 39.89599 57.87107 35769 ft 379 kts 266°
2026-04-20 12:58 39.89528 57.80324 35768 ft 378 kts 266°
2026-04-20 12:58 39.89452 57.73481 35762 ft 380 kts 266°
2026-04-20 12:59 39.89375 57.66618 35759 ft 379 kts 266°
2026-04-20 12:59 39.89292 57.59825 35762 ft 377 kts 266°
2026-04-20 13:00 39.89207 57.53028 35766 ft 377 kts 266°
2026-04-20 13:00 39.89117 57.46204 35779 ft 378 kts 266°
2026-04-20 13:01 39.89021 57.39383 35774 ft 378 kts 266°
2026-04-20 13:01 39.88922 57.32543 35765 ft 379 kts 265°
2026-04-20 13:02 39.88821 57.25733 35763 ft 377 kts 265°
2026-04-20 13:02 39.88716 57.18897 35761 ft 380 kts 266°
2026-04-20 13:03 39.88605 57.12025 35767 ft 380 kts 265°
2026-04-20 13:03 39.88492 57.05205 35773 ft 379 kts 265°
2026-04-20 13:04 39.88373 56.98357 35765 ft 380 kts 265°
2026-04-20 13:04 39.88249 56.91494 35773 ft 381 kts 265°
2026-04-20 13:05 39.88121 56.84630 35771 ft 379 kts 265°
2026-04-20 13:05 39.87991 56.77813 35775 ft 381 kts 265°
2026-04-20 13:06 39.87856 56.70932 35772 ft 379 kts 265°
2026-04-20 13:06 39.87719 56.64131 35772 ft 380 kts 265°
2026-04-20 13:07 39.87574 56.57261 35778 ft 381 kts 265°
2026-04-20 13:07 39.87425 56.50384 35779 ft 380 kts 265°
2026-04-20 13:08 39.87274 56.43531 35784 ft 381 kts 265°
2026-04-20 13:08 39.87120 56.36666 35788 ft 380 kts 265°
2026-04-20 13:09 39.86963 56.29807 35790 ft 382 kts 264°
2026-04-20 13:09 39.86800 56.22944 35795 ft 380 kts 264°
2026-04-20 13:10 39.86633 56.16095 35796 ft 383 kts 265°
2026-04-20 13:10 39.86461 56.09230 35792 ft 381 kts 264°
2026-04-20 13:11 39.86285 56.02313 35788 ft 382 kts 264°
2026-04-20 13:11 39.86103 55.95418 35791 ft 383 kts 264°
2026-04-20 13:12 39.85920 55.88541 35790 ft 383 kts 264°
2026-04-20 13:12 39.85731 55.81655 35787 ft 383 kts 264°
2026-04-20 13:13 39.85537 55.74741 35789 ft 385 kts 264°
2026-04-20 13:13 39.85337 55.67768 35792 ft 385 kts 264°
2026-04-20 13:14 39.85135 55.60817 35792 ft 384 kts 264°
2026-04-20 13:14 39.84930 55.53916 35798 ft 386 kts 264°
2026-04-20 13:15 39.84718 55.46931 35808 ft 387 kts 264°
2026-04-20 13:15 39.84504 55.40025 35807 ft 384 kts 264°
2026-04-20 13:16 39.84287 55.33103 35805 ft 387 kts 264°
2026-04-20 13:16 39.84060 55.26092 35807 ft 387 kts 264°
2026-04-20 13:17 39.83834 55.19152 35810 ft 386 kts 264°
2026-04-20 13:17 39.83601 55.12156 35806 ft 387 kts 264°
2026-04-20 13:18 39.83365 55.05214 35808 ft 388 kts 263°
2026-04-20 13:18 39.83122 54.98204 35814 ft 388 kts 263°
2026-04-20 13:19 39.82877 54.91235 35820 ft 388 kts 264°
2026-04-20 13:19 39.82628 54.84269 35825 ft 388 kts 264°
2026-04-20 13:20 39.82467 54.77206 35834 ft 392 kts 267°
2026-04-20 13:20 39.83030 54.70150 35846 ft 396 kts 274°
2026-04-20 13:21 39.83969 54.63105 35846 ft 399 kts 275°
2026-04-20 13:21 39.84945 54.56020 35848 ft 399 kts 275°
2026-04-20 13:22 39.85891 54.48946 35843 ft 399 kts 275°
2026-04-20 13:22 39.86823 54.41805 35841 ft 400 kts 274°
2026-04-20 13:23 39.87735 54.34723 35839 ft 401 kts 274°
2026-04-20 13:23 39.88649 54.27574 35838 ft 401 kts 274°
2026-04-20 13:24 39.89557 54.20432 35836 ft 401 kts 274°
2026-04-20 13:24 39.90461 54.13288 35841 ft 401 kts 274°
2026-04-20 13:25 39.91358 54.06152 35838 ft 401 kts 274°
2026-04-20 13:25 39.92253 53.99006 35838 ft 402 kts 274°
2026-04-20 13:26 39.93146 53.91822 35840 ft 402 kts 274°
2026-04-20 13:26 39.94033 53.84664 35844 ft 403 kts 274°
2026-04-20 13:27 39.94916 53.77484 35842 ft 403 kts 274°
2026-04-20 13:27 39.95799 53.70284 35842 ft 403 kts 274°
2026-04-20 13:28 39.96675 53.63108 35843 ft 403 kts 274°
2026-04-20 13:28 39.97550 53.55892 35847 ft 405 kts 274°
2026-04-20 13:29 39.98421 53.48669 35851 ft 405 kts 274°
2026-04-20 13:29 39.99293 53.41401 35855 ft 405 kts 274°
2026-04-20 13:30 40.00156 53.34162 35862 ft 407 kts 274°
2026-04-20 13:30 40.01016 53.26905 35862 ft 406 kts 274°
2026-04-20 13:31 40.01869 53.19673 35864 ft 407 kts 274°
2026-04-20 13:31 40.02723 53.12392 35864 ft 407 kts 274°
2026-04-20 13:32 40.03570 53.05092 35864 ft 407 kts 273°
2026-04-20 13:32 40.03966 52.97777 35868 ft 404 kts 266°
2026-04-20 13:33 40.03835 52.90484 35869 ft 403 kts 265°
2026-04-20 13:33 40.03605 52.83203 35874 ft 404 kts 264°
2026-04-20 13:34 40.03375 52.75903 35870 ft 405 kts 264°
2026-04-20 13:34 40.03155 52.68588 35876 ft 404 kts 264°
2026-04-20 13:35 40.02942 52.61288 35876 ft 403 kts 265°
2026-04-20 13:35 40.02728 52.54015 35881 ft 404 kts 265°
2026-04-20 13:36 40.02508 52.46685 35883 ft 405 kts 265°
2026-04-20 13:36 40.02284 52.39370 35886 ft 405 kts 265°
2026-04-20 13:37 40.02055 52.32064 35895 ft 406 kts 264°
2026-04-20 13:37 40.01820 52.24723 35902 ft 406 kts 264°
2026-04-20 13:38 40.01582 52.17415 35901 ft 405 kts 264°
2026-04-20 13:38 40.01339 52.10075 35900 ft 406 kts 264°
2026-04-20 13:39 40.01091 52.02719 35904 ft 407 kts 264°
2026-04-20 13:39 40.00840 51.95423 35909 ft 407 kts 264°
2026-04-20 13:40 40.00581 51.88076 35910 ft 408 kts 264°
2026-04-20 13:40 40.00319 51.80694 35922 ft 407 kts 264°
2026-04-20 13:41 40.00052 51.73362 35915 ft 407 kts 264°
2026-04-20 13:41 39.99781 51.66025 35916 ft 407 kts 264°
2026-04-20 13:42 39.99505 51.58684 35913 ft 407 kts 264°
2026-04-20 13:42 39.99424 51.47619 35917 ft 411 kts 271°
2026-04-20 13:43 40.00099 51.40219 35921 ft 412 kts 274°
2026-04-20 13:43 40.00927 51.32881 35916 ft 413 kts 274°
2026-04-20 13:44 40.01761 51.25444 35917 ft 413 kts 274°
2026-04-20 13:44 40.02560 51.18089 35924 ft 413 kts 274°
2026-04-20 13:45 40.03348 51.10671 35926 ft 414 kts 274°
2026-04-20 13:45 40.04130 51.03223 35924 ft 413 kts 274°
2026-04-20 13:46 40.04898 50.95830 35926 ft 415 kts 274°
2026-04-20 13:46 40.05664 50.88402 35923 ft 414 kts 274°
2026-04-20 13:47 40.06427 50.80952 35927 ft 415 kts 274°
2026-04-20 13:47 40.07180 50.73546 35929 ft 415 kts 274°
2026-04-20 13:48 40.07936 50.66064 35936 ft 415 kts 274°
2026-04-20 13:48 40.08680 50.58657 35936 ft 415 kts 274°
2026-04-20 13:49 40.09424 50.51206 35936 ft 415 kts 274°
2026-04-20 13:49 40.10164 50.43737 35941 ft 417 kts 274°
2026-04-20 13:50 40.10899 50.36271 35938 ft 416 kts 274°
2026-04-20 13:50 40.11631 50.28785 35928 ft 416 kts 274°
2026-04-20 13:51 40.12359 50.21294 35927 ft 417 kts 274°
2026-04-20 13:51 40.13080 50.13825 35931 ft 417 kts 274°
2026-04-20 13:52 40.13798 50.06342 35931 ft 416 kts 274°
2026-04-20 13:52 40.14513 49.98827 35934 ft 418 kts 274°
2026-04-20 13:53 40.15219 49.91342 35933 ft 417 kts 274°
2026-04-20 13:53 40.15918 49.83878 35936 ft 417 kts 274°
2026-04-20 13:54 40.16616 49.76387 35934 ft 417 kts 274°
2026-04-20 13:54 40.17311 49.68880 35941 ft 417 kts 274°
2026-04-20 13:55 40.18001 49.61363 35934 ft 416 kts 274°
2026-04-20 13:55 40.18686 49.53861 35935 ft 418 kts 274°
2026-04-20 13:56 40.19077 49.46322 35945 ft 416 kts 269°
2026-04-20 13:56 40.19033 49.38819 35934 ft 414 kts 267°
2026-04-20 13:57 40.18929 49.31330 35932 ft 414 kts 266°
2026-04-20 13:57 40.18854 49.23826 35942 ft 415 kts 267°
2026-04-20 13:58 40.18814 49.16288 35945 ft 415 kts 267°
2026-04-20 13:58 40.18786 49.08794 35939 ft 415 kts 267°
2026-04-20 13:59 40.18758 49.01273 35945 ft 414 kts 267°
2026-04-20 13:59 40.18726 48.93760 35943 ft 415 kts 267°
2026-04-20 14:00 40.18686 48.86266 35943 ft 416 kts 267°
2026-04-20 14:00 40.18642 48.78730 35943 ft 415 kts 267°
2026-04-20 14:01 40.18594 48.71231 35951 ft 416 kts 267°
2026-04-20 14:01 40.18539 48.63674 35944 ft 416 kts 267°
2026-04-20 14:02 40.18481 48.56151 35940 ft 416 kts 267°
2026-04-20 14:02 40.18418 48.48639 35936 ft 416 kts 267°
2026-04-20 14:03 40.18350 48.41105 35939 ft 416 kts 267°
2026-04-20 14:03 40.18276 48.33579 35939 ft 417 kts 266°
2026-04-20 14:04 40.18197 48.26020 35936 ft 416 kts 266°
2026-04-20 14:04 40.18115 48.18488 35930 ft 416 kts 266°
2026-04-20 14:05 40.18026 48.10964 35921 ft 416 kts 266°
2026-04-20 14:05 40.17933 48.03431 35922 ft 417 kts 266°
2026-04-20 14:06 40.17836 47.95887 35923 ft 417 kts 266°
2026-04-20 14:06 40.17733 47.88308 35923 ft 417 kts 266°
2026-04-20 14:07 40.17626 47.80788 35921 ft 417 kts 266°
2026-04-20 14:07 40.17513 47.73214 35921 ft 417 kts 266°
2026-04-20 14:08 40.17395 47.65670 35924 ft 416 kts 266°
2026-04-20 14:08 40.17272 47.58125 35920 ft 418 kts 266°
2026-04-20 14:09 40.17145 47.50564 35922 ft 416 kts 266°
2026-04-20 14:09 40.17012 47.43017 35919 ft 417 kts 266°
2026-04-20 14:10 40.16874 47.35458 35930 ft 417 kts 266°
2026-04-20 14:10 40.16732 47.27922 35925 ft 415 kts 265°
2026-04-20 14:11 40.16584 47.20433 35921 ft 417 kts 265°
2026-04-20 14:11 40.16429 47.12854 35924 ft 416 kts 265°
2026-04-20 14:12 40.16270 47.05338 35925 ft 417 kts 265°
2026-04-20 14:12 40.16106 46.97802 35926 ft 416 kts 265°
2026-04-20 14:13 40.15939 46.90242 35932 ft 418 kts 265°
2026-04-20 14:13 40.15767 46.82663 35926 ft 417 kts 265°
2026-04-20 14:14 40.15590 46.75137 35935 ft 418 kts 264°
2026-04-20 14:14 40.15407 46.67593 35940 ft 417 kts 265°
2026-04-20 14:15 40.15219 46.60033 35943 ft 416 kts 264°
2026-04-20 14:15 40.15029 46.52514 35955 ft 417 kts 264°
2026-04-20 14:16 40.14830 46.44966 35965 ft 416 kts 264°
2026-04-20 14:16 40.14628 46.37461 35971 ft 417 kts 264°
2026-04-20 14:17 40.14421 46.29917 35982 ft 417 kts 263°
2026-04-20 14:17 40.14209 46.22334 35976 ft 417 kts 264°
2026-04-20 14:18 40.13993 46.14834 35982 ft 417 kts 263°
2026-04-20 14:18 40.13770 46.07245 35990 ft 417 kts 264°
2026-04-20 14:19 40.13657 45.99713 35988 ft 421 kts 268°
2026-04-20 14:19 40.14881 45.92168 35978 ft 436 kts 285°
2026-04-20 14:20 40.17513 45.85003 35970 ft 440 kts 291°
2026-04-20 14:20 40.20399 45.78028 35968 ft 439 kts 292°
2026-04-20 14:21 40.23328 45.70968 35961 ft 442 kts 292°
2026-04-20 14:21 40.26213 45.63924 35953 ft 440 kts 292°
2026-04-20 14:22 40.29059 45.56893 35951 ft 440 kts 291°
2026-04-20 14:22 40.31900 45.49820 35945 ft 441 kts 291°
2026-04-20 14:23 40.34728 45.42743 35948 ft 442 kts 291°
2026-04-20 14:23 40.37571 45.35612 35950 ft 440 kts 291°
2026-04-20 14:24 40.40385 45.28538 35946 ft 440 kts 290°
2026-04-20 14:24 40.43221 45.21390 35946 ft 442 kts 290°
2026-04-20 14:25 40.46048 45.14245 35944 ft 442 kts 290°
2026-04-20 14:25 40.48854 45.07137 35942 ft 442 kts 290°
2026-04-20 14:26 40.51617 44.99964 35929 ft 439 kts 287°
2026-04-20 14:26 40.53428 44.92489 35934 ft 427 kts 274°
2026-04-20 14:27 40.54100 44.84796 35935 ft 424 kts 269°
2026-04-20 14:27 40.54465 44.77107 35940 ft 424 kts 268°
2026-04-20 14:28 40.54812 44.69391 35928 ft 424 kts 268°
2026-04-20 14:28 40.55175 44.61655 35917 ft 424 kts 268°
2026-04-20 14:29 40.55544 44.53977 35919 ft 425 kts 268°
2026-04-20 14:29 40.55918 44.46238 35924 ft 424 kts 268°
2026-04-20 14:30 40.56289 44.38559 35919 ft 425 kts 268°
2026-04-20 14:30 40.56655 44.30829 35916 ft 424 kts 268°
2026-04-20 14:31 40.57019 44.23086 35908 ft 425 kts 267°
2026-04-20 14:31 40.57375 44.15334 35904 ft 427 kts 268°
2026-04-20 14:32 40.57726 44.07611 35905 ft 426 kts 267°
2026-04-20 14:32 40.58081 43.99815 35902 ft 425 kts 267°
2026-04-20 14:33 40.58428 43.92086 35897 ft 426 kts 268°
2026-04-20 14:33 40.58767 43.84311 35902 ft 428 kts 268°
2026-04-20 14:34 40.59099 43.76564 35914 ft 427 kts 268°
2026-04-20 14:34 40.59429 43.68778 35928 ft 428 kts 268°
2026-04-20 14:35 40.59754 43.60955 35923 ft 429 kts 268°
2026-04-20 14:35 40.60067 43.53153 36158 ft 432 kts 268°
2026-04-20 14:36 40.60222 43.49214 35986 ft 429 kts 267°
2026-04-20 14:36 40.60375 43.45364 35945 ft 424 kts 267°
2026-04-20 14:36 40.60678 43.37568 35933 ft 430 kts 267°
2026-04-20 14:37 40.60975 43.29795 35930 ft 428 kts 267°
2026-04-20 14:37 40.61274 43.21959 35934 ft 430 kts 267°
2026-04-20 14:38 40.61566 43.14153 35934 ft 427 kts 267°
2026-04-20 14:38 40.61853 43.06309 35949 ft 431 kts 267°
2026-04-20 14:39 40.62135 42.98485 35947 ft 429 kts 267°
2026-04-20 14:39 40.62412 42.90667 35949 ft 429 kts 267°
2026-04-20 14:40 40.62683 42.82815 35933 ft 432 kts 267°
2026-04-20 14:40 40.62949 42.75003 35927 ft 431 kts 267°
2026-04-20 14:41 40.63211 42.67115 35923 ft 432 kts 267°
2026-04-20 14:41 40.63533 42.59290 35925 ft 433 kts 270°
2026-04-20 14:42 40.64417 42.51418 35925 ft 438 kts 275°
2026-04-20 14:42 40.65570 42.43592 35928 ft 437 kts 276°
2026-04-20 14:43 40.66740 42.35771 35939 ft 440 kts 276°
2026-04-20 14:43 40.67893 42.27906 35954 ft 438 kts 275°
2026-04-20 14:44 40.69025 42.20027 35960 ft 437 kts 275°
2026-04-20 14:44 40.70139 42.12159 35967 ft 439 kts 275°
2026-04-20 14:45 40.71240 42.04312 35968 ft 439 kts 275°
2026-04-20 14:45 40.72344 41.96392 35975 ft 438 kts 275°
2026-04-20 14:46 40.73432 41.88529 35958 ft 439 kts 275°
2026-04-20 14:46 40.74523 41.80624 35949 ft 439 kts 275°
2026-04-20 14:47 40.75600 41.72772 35931 ft 439 kts 275°
2026-04-20 14:48 40.77216 41.60902 35968 ft 440 kts 276°
2026-04-20 14:48 40.78285 41.52994 35992 ft 441 kts 276°
2026-04-20 14:49 40.79355 41.45046 35990 ft 440 kts 276°
2026-04-20 14:49 40.80414 41.37136 35972 ft 442 kts 276°
2026-04-20 14:50 40.81479 41.29126 35933 ft 442 kts 275°
2026-04-20 14:50 40.82532 41.21190 35934 ft 441 kts 275°
2026-04-20 14:51 40.83573 41.13283 35937 ft 441 kts 275°
2026-04-20 14:51 40.84593 41.05289 35947 ft 443 kts 275°
2026-04-20 14:52 40.85579 40.97308 35950 ft 442 kts 275°
2026-04-20 14:52 40.86558 40.89342 35942 ft 442 kts 275°
2026-04-20 14:53 40.87537 40.81347 35968 ft 442 kts 275°
2026-04-20 14:53 40.88508 40.73378 35971 ft 443 kts 275°
2026-04-20 14:54 40.89480 40.65372 35996 ft 441 kts 275°
2026-04-20 14:54 40.90443 40.57397 35999 ft 441 kts 276°
2026-04-20 14:55 40.91397 40.49457 36003 ft 441 kts 276°
2026-04-20 14:55 40.92352 40.41463 36022 ft 441 kts 276°
2026-04-20 14:56 40.93296 40.33486 36035 ft 442 kts 275°
2026-04-20 14:56 40.94235 40.25519 36044 ft 441 kts 275°
2026-04-20 14:57 40.95179 40.17464 36048 ft 442 kts 276°
2026-04-20 14:57 40.96112 40.09456 36057 ft 442 kts 276°
2026-04-20 14:58 40.97040 40.01438 36052 ft 443 kts 276°
2026-04-20 14:58 40.97958 39.93457 36060 ft 442 kts 276°
2026-04-20 14:59 40.98878 39.85420 36058 ft 443 kts 276°
2026-04-20 14:59 40.99779 39.77431 36074 ft 442 kts 275°
2026-04-20 15:00 41.00586 39.69350 36066 ft 444 kts 275°
2026-04-20 15:00 41.01337 39.61295 36051 ft 443 kts 275°
2026-04-20 15:01 41.02091 39.53175 36058 ft 445 kts 275°
2026-04-20 15:01 41.02845 39.45081 36043 ft 446 kts 275°
2026-04-20 15:02 41.03599 39.36997 36036 ft 446 kts 275°
2026-04-20 15:02 41.04355 39.28870 36035 ft 445 kts 275°
2026-04-20 15:03 41.05103 39.20755 36044 ft 446 kts 275°
2026-04-20 15:03 41.05849 39.12623 36061 ft 446 kts 275°
2026-04-20 15:04 41.06592 39.04463 36042 ft 446 kts 275°
2026-04-20 15:04 41.07327 38.96305 36057 ft 446 kts 275°
2026-04-20 15:05 41.08054 38.88175 36057 ft 447 kts 275°
2026-04-20 15:05 41.08777 38.80018 36068 ft 445 kts 275°
2026-04-20 15:06 41.09488 38.71943 36072 ft 445 kts 276°
2026-04-20 15:06 41.10198 38.63811 36063 ft 444 kts 276°
2026-04-20 15:07 41.10902 38.55683 36073 ft 444 kts 276°
2026-04-20 15:07 41.11601 38.47545 36065 ft 445 kts 276°
2026-04-20 15:08 41.12290 38.39449 36045 ft 444 kts 276°
2026-04-20 15:08 41.12978 38.31300 36047 ft 446 kts 276°
2026-04-20 15:09 41.13656 38.23195 36056 ft 445 kts 276°
2026-04-20 15:09 41.14340 38.15026 36050 ft 448 kts 276°
2026-04-20 15:10 41.15019 38.06854 36052 ft 448 kts 276°
2026-04-20 15:10 41.15693 37.98657 36043 ft 448 kts 276°
2026-04-20 15:11 41.16361 37.90465 36052 ft 447 kts 276°
2026-04-20 15:11 41.17018 37.82333 36054 ft 447 kts 276°
2026-04-20 15:12 41.17674 37.74148 36046 ft 447 kts 276°
2026-04-20 15:12 41.18323 37.65993 36033 ft 445 kts 276°
2026-04-20 15:13 41.18965 37.57834 36047 ft 447 kts 276°
2026-04-20 15:13 41.19599 37.49710 36052 ft 445 kts 277°
2026-04-20 15:14 41.20230 37.41538 36037 ft 445 kts 277°
2026-04-20 15:14 41.20851 37.33424 36036 ft 445 kts 276°
2026-04-20 15:15 41.21468 37.25284 36037 ft 445 kts 276°
2026-04-20 15:15 41.22082 37.17114 36033 ft 444 kts 276°
2026-04-20 15:16 41.22684 37.09020 36033 ft 444 kts 276°
2026-04-20 15:16 41.22984 37.04964 35893 ft 442 kts 276°
2026-04-20 15:16 41.23282 37.00898 35994 ft 445 kts 276°
2026-04-20 15:17 41.23875 36.92752 36024 ft 445 kts 276°
2026-04-20 15:17 41.24466 36.84574 36037 ft 443 kts 276°
2026-04-20 15:18 41.25044 36.76505 36042 ft 443 kts 276°
2026-04-20 15:18 41.25618 36.68390 36046 ft 442 kts 276°
2026-04-20 15:19 41.26237 36.60300 36042 ft 441 kts 279°
2026-04-20 15:19 41.27945 36.52543 36048 ft 440 kts 297°
2026-04-20 15:20 41.31175 36.45631 36322 ft 442 kts 304°
2026-04-20 15:20 41.32921 36.42324 36122 ft 439 kts 306°
2026-04-20 15:20 41.34691 36.39046 36063 ft 434 kts 306°
2026-04-20 15:21 41.38202 36.32542 36043 ft 437 kts 305°
2026-04-20 15:21 41.41715 36.25942 36045 ft 436 kts 304°
2026-04-20 15:22 41.45178 36.19356 36040 ft 436 kts 304°
2026-04-20 15:22 41.48635 36.12732 36041 ft 435 kts 304°
2026-04-20 15:23 41.52070 36.06123 36034 ft 434 kts 304°
2026-04-20 15:23 41.55487 35.99526 36034 ft 433 kts 304°
2026-04-20 15:24 41.58891 35.92939 36029 ft 434 kts 304°
2026-04-20 15:24 41.62310 35.86309 36027 ft 434 kts 304°
2026-04-20 15:25 41.65728 35.79666 36027 ft 434 kts 304°
2026-04-20 15:25 41.69127 35.73048 36025 ft 434 kts 304°
2026-04-20 15:26 41.72546 35.66378 36028 ft 434 kts 304°
2026-04-20 15:26 41.75923 35.59774 36023 ft 433 kts 304°
2026-04-20 15:27 41.79307 35.53139 36029 ft 432 kts 304°
2026-04-20 15:27 41.82672 35.46528 36029 ft 432 kts 304°
2026-04-20 15:28 41.86061 35.39855 36032 ft 432 kts 304°
2026-04-20 15:28 41.89426 35.33216 36029 ft 431 kts 303°
2026-04-20 15:29 41.92757 35.26627 36030 ft 430 kts 303°
2026-04-20 15:29 41.96129 35.19944 36032 ft 432 kts 303°
2026-04-20 15:30 41.99468 35.13289 36039 ft 432 kts 302°
2026-04-20 15:30 42.02184 35.06139 36044 ft 431 kts 290°
2026-04-20 15:31 42.03727 34.98386 36035 ft 432 kts 282°
2026-04-20 15:31 42.04839 34.90453 36034 ft 431 kts 281°
2026-04-20 15:32 42.05874 34.82543 36033 ft 430 kts 281°
2026-04-20 15:32 42.06916 34.74670 36031 ft 430 kts 281°
2026-04-20 15:33 42.07974 34.66802 36030 ft 430 kts 281°
2026-04-20 15:33 42.09042 34.58920 36031 ft 430 kts 281°
2026-04-20 15:34 42.10106 34.51048 36028 ft 430 kts 281°
2026-04-20 15:34 42.11169 34.43146 36031 ft 430 kts 281°
2026-04-20 15:35 42.12203 34.35233 36029 ft 431 kts 281°
2026-04-20 15:35 42.13206 34.27318 36029 ft 430 kts 280°
2026-04-20 15:36 42.14201 34.19415 36030 ft 430 kts 280°
2026-04-20 15:36 42.15196 34.11498 36028 ft 429 kts 280°
2026-04-20 15:37 42.16183 34.03616 36029 ft 430 kts 280°
2026-04-20 15:37 42.17167 33.95713 36028 ft 429 kts 280°
2026-04-20 15:38 42.18146 33.87806 36026 ft 430 kts 280°
2026-04-20 15:38 42.19119 33.79898 36018 ft 429 kts 280°
2026-04-20 15:39 42.20091 33.71964 36020 ft 430 kts 280°
2026-04-20 15:39 42.21051 33.64074 36011 ft 429 kts 280°
2026-04-20 15:40 42.22009 33.56149 36013 ft 430 kts 280°
2026-04-20 15:40 42.22962 33.48237 36003 ft 430 kts 280°
2026-04-20 15:41 42.23915 33.40266 36005 ft 429 kts 280°
2026-04-20 15:41 42.24853 33.32370 36003 ft 429 kts 279°
2026-04-20 15:42 42.25790 33.24446 35997 ft 428 kts 279°
2026-04-20 15:42 42.26717 33.16553 35988 ft 429 kts 279°
2026-04-20 15:43 42.27645 33.08592 35984 ft 429 kts 279°
2026-04-20 15:43 42.28564 33.00663 35992 ft 430 kts 279°
2026-04-20 15:44 42.29477 32.92735 35988 ft 429 kts 279°
2026-04-20 15:44 42.30383 32.84824 35978 ft 430 kts 279°
2026-04-20 15:45 42.31292 32.76842 35987 ft 429 kts 279°
2026-04-20 15:45 42.32192 32.68885 35991 ft 429 kts 279°
2026-04-20 15:46 42.33089 32.60935 35986 ft 430 kts 280°
2026-04-20 15:46 42.34361 32.53110 35986 ft 429 kts 285°
2026-04-20 15:47 42.36003 32.45393 35985 ft 429 kts 287°
2026-04-20 15:47 42.37703 32.37676 35989 ft 429 kts 287°
2026-04-20 15:48 42.39372 32.29989 35986 ft 429 kts 286°
2026-04-20 15:48 42.41017 32.22287 35984 ft 429 kts 286°
2026-04-20 15:49 42.42650 32.14548 35989 ft 429 kts 286°
2026-04-20 15:49 42.44278 32.06775 35987 ft 430 kts 286°
2026-04-20 15:50 42.45886 31.99053 35988 ft 431 kts 286°
2026-04-20 15:50 42.47509 31.91231 35990 ft 430 kts 286°
2026-04-20 15:51 42.49119 31.83444 35985 ft 435 kts 286°
2026-04-20 15:51 42.50741 31.75572 35980 ft 434 kts 286°
2026-04-20 15:52 42.52344 31.67759 35988 ft 434 kts 286°
2026-04-20 15:52 42.53953 31.59893 35987 ft 434 kts 286°
2026-04-20 15:53 42.56361 31.48052 35983 ft 435 kts 286°
2026-04-20 15:53 42.57948 31.40209 35985 ft 434 kts 286°
2026-04-20 15:54 42.59536 31.32335 35986 ft 434 kts 285°
2026-04-20 15:54 42.61125 31.24417 35986 ft 434 kts 285°
2026-04-20 15:55 42.62691 31.16591 35986 ft 434 kts 285°
2026-04-20 15:55 42.64263 31.08700 35987 ft 434 kts 285°
2026-04-20 15:56 42.65824 31.00832 35983 ft 435 kts 285°
2026-04-20 15:56 42.67388 30.92919 35983 ft 434 kts 285°
2026-04-20 15:57 42.68948 30.85000 35984 ft 435 kts 285°
2026-04-20 15:57 42.70495 30.77112 35980 ft 434 kts 285°
2026-04-20 15:58 42.72032 30.69247 35973 ft 434 kts 285°
2026-04-20 15:58 42.73793 30.61397 35968 ft 434 kts 292°
2026-04-20 15:59 42.76680 30.54306 35963 ft 433 kts 304°
2026-04-20 15:59 42.80244 30.47684 35959 ft 433 kts 307°
2026-04-20 16:00 42.83917 30.41211 35958 ft 433 kts 307°
2026-04-20 16:00 42.87571 30.34725 35954 ft 433 kts 307°
2026-04-20 16:01 42.91181 30.28232 35952 ft 432 kts 306°
2026-04-20 16:01 42.94789 30.21682 35952 ft 432 kts 306°
2026-04-20 16:02 42.98375 30.15133 35954 ft 432 kts 306°
2026-04-20 16:02 43.01935 30.08607 35947 ft 430 kts 306°
2026-04-20 16:03 43.05506 30.02039 35950 ft 431 kts 306°
2026-04-20 16:03 43.09083 29.95449 35945 ft 431 kts 306°
2026-04-20 16:04 43.12630 29.88900 35944 ft 432 kts 306°
2026-04-20 16:04 43.16202 29.82291 35944 ft 431 kts 306°
2026-04-20 16:05 43.19749 29.75713 35939 ft 431 kts 306°
2026-04-20 16:05 43.23289 29.69133 35933 ft 430 kts 306°
2026-04-20 16:06 43.26808 29.62575 35931 ft 430 kts 306°
2026-04-20 16:06 43.30349 29.55963 35922 ft 429 kts 306°
2026-04-20 16:07 43.33857 29.49397 35912 ft 429 kts 306°
2026-04-20 16:07 43.37385 29.42779 35911 ft 430 kts 306°
2026-04-20 16:08 43.40904 29.36167 35911 ft 429 kts 306°
2026-04-20 16:08 43.44392 29.29596 35904 ft 429 kts 305°
2026-04-20 16:09 43.47910 29.22953 35906 ft 429 kts 305°
2026-04-20 16:09 43.51402 29.16345 35901 ft 429 kts 305°
2026-04-20 16:10 43.54893 29.09724 35897 ft 430 kts 305°
2026-04-20 16:10 43.58389 29.03077 35892 ft 430 kts 304°
2026-04-20 16:11 43.61901 28.96385 35890 ft 429 kts 304°
2026-04-20 16:11 43.65368 28.89765 35886 ft 428 kts 304°
2026-04-20 16:12 43.68842 28.83164 35884 ft 428 kts 306°
2026-04-20 16:12 43.72745 28.76940 35885 ft 429 kts 311°
2026-04-20 16:13 43.76893 28.71090 35882 ft 429 kts 313°
2026-04-20 16:13 43.81118 28.65286 35877 ft 429 kts 313°
2026-04-20 16:14 43.85354 28.59438 35876 ft 430 kts 313°
2026-04-20 16:14 43.89560 28.53584 35872 ft 430 kts 313°
2026-04-20 16:15 43.93762 28.47704 35868 ft 430 kts 313°
2026-04-20 16:15 43.97953 28.41817 35865 ft 431 kts 313°
2026-04-20 16:16 44.02153 28.35900 35855 ft 430 kts 313°
2026-04-20 16:16 44.06342 28.29984 35858 ft 430 kts 312°
2026-04-20 16:17 44.10521 28.24067 35847 ft 430 kts 312°
2026-04-20 16:17 44.14681 28.18166 35845 ft 431 kts 312°
2026-04-20 16:18 44.18888 28.12188 35845 ft 430 kts 311°
2026-04-20 16:18 44.23066 28.06238 35849 ft 430 kts 311°
2026-04-20 16:19 44.27234 28.00288 35845 ft 432 kts 311°
2026-04-20 16:19 44.31406 27.94319 35836 ft 431 kts 311°
2026-04-20 16:20 44.35592 27.88318 35827 ft 432 kts 311°
2026-04-20 16:20 44.39772 27.82312 35825 ft 433 kts 311°
2026-04-20 16:21 44.43957 27.76287 35823 ft 433 kts 311°
2026-04-20 16:21 44.48116 27.70286 35827 ft 432 kts 311°
2026-04-20 16:22 44.52292 27.64244 35805 ft 432 kts 311°
2026-04-20 16:22 44.56458 27.58207 35809 ft 432 kts 311°
2026-04-20 16:23 44.60593 27.52200 35809 ft 431 kts 311°
2026-04-20 16:23 44.64755 27.46143 35801 ft 431 kts 311°
2026-04-20 16:24 44.68899 27.40094 35809 ft 433 kts 311°
2026-04-20 16:24 44.73072 27.33991 35803 ft 432 kts 310°
2026-04-20 16:25 44.77197 27.27949 35807 ft 431 kts 310°
2026-04-20 16:25 44.81342 27.21863 35804 ft 432 kts 310°
2026-04-20 16:26 44.85479 27.15772 35811 ft 433 kts 310°
2026-04-20 16:26 44.89633 27.09644 35814 ft 432 kts 310°
2026-04-20 16:27 44.93767 27.03531 35818 ft 433 kts 310°
2026-04-20 16:27 44.97928 26.97368 35822 ft 433 kts 310°
2026-04-20 16:28 45.02052 26.91243 35826 ft 432 kts 310°
2026-04-20 16:28 45.06163 26.85124 35821 ft 432 kts 310°
2026-04-20 16:29 45.10292 26.78965 35822 ft 432 kts 310°
2026-04-20 16:29 45.14422 26.72790 35824 ft 432 kts 310°
2026-04-20 16:30 45.18525 26.66641 35824 ft 432 kts 310°
2026-04-20 16:30 45.22641 26.60459 35839 ft 432 kts 310°
2026-04-20 16:31 45.26752 26.54269 35841 ft 431 kts 310°
2026-04-20 16:31 45.30848 26.48090 35841 ft 432 kts 310°
2026-04-20 16:32 45.34930 26.41918 35839 ft 431 kts 310°
2026-04-20 16:32 45.39036 26.35696 35837 ft 433 kts 310°
2026-04-20 16:33 45.43145 26.29457 35833 ft 433 kts 310°
2026-04-20 16:33 45.47239 26.23225 35833 ft 432 kts 310°
2026-04-20 16:34 45.51318 26.17002 35831 ft 433 kts 310°
2026-04-20 16:34 45.55429 26.10718 35839 ft 432 kts 310°
2026-04-20 16:35 45.59505 26.04470 35838 ft 433 kts 309°
2026-04-20 16:35 45.63602 25.98175 35837 ft 435 kts 310°
2026-04-20 16:36 45.67680 25.91895 35845 ft 433 kts 309°
2026-04-20 16:36 45.71760 25.85598 35856 ft 434 kts 310°
2026-04-20 16:37 45.75848 25.79275 35872 ft 433 kts 309°
2026-04-20 16:37 45.79920 25.72963 35878 ft 433 kts 310°
2026-04-20 16:38 45.83982 25.66652 35872 ft 434 kts 310°
2026-04-20 16:38 45.88081 25.60266 35869 ft 434 kts 310°
2026-04-20 16:39 45.92133 25.53939 35872 ft 434 kts 310°
2026-04-20 16:39 45.96218 25.47546 35874 ft 435 kts 310°
2026-04-20 16:40 46.00285 25.41166 35884 ft 435 kts 310°
2026-04-20 16:40 46.04370 25.34744 35888 ft 435 kts 309°
2026-04-20 16:41 46.08432 25.28342 35888 ft 435 kts 309°
2026-04-20 16:41 46.12486 25.21938 35893 ft 434 kts 309°
2026-04-20 16:42 46.16558 25.15491 35888 ft 434 kts 309°
2026-04-20 16:42 46.20602 25.09074 35897 ft 434 kts 309°
2026-04-20 16:43 46.24656 25.02627 35898 ft 434 kts 309°
2026-04-20 16:43 46.28688 24.96195 35910 ft 435 kts 309°
2026-04-20 16:44 46.32738 24.89721 35910 ft 435 kts 309°
2026-04-20 16:44 46.36790 24.83227 35911 ft 436 kts 309°
2026-04-20 16:45 46.40830 24.76742 35908 ft 434 kts 309°
2026-04-20 16:45 46.44849 24.70270 35909 ft 436 kts 309°
2026-04-20 16:46 46.48898 24.63737 35911 ft 434 kts 309°
2026-04-20 16:46 46.52909 24.57249 35907 ft 435 kts 309°
2026-04-20 16:47 46.56949 24.50699 35904 ft 435 kts 309°
2026-04-20 16:47 46.60962 24.44176 35902 ft 436 kts 309°
2026-04-20 16:48 46.64981 24.37628 35900 ft 435 kts 309°
2026-04-20 16:48 46.69001 24.31063 35906 ft 435 kts 309°
2026-04-20 16:49 46.73010 24.24501 35898 ft 435 kts 309°
2026-04-20 16:49 46.77012 24.17933 35892 ft 434 kts 309°
2026-04-20 16:50 46.81005 24.11361 35893 ft 435 kts 309°
2026-04-20 16:50 46.84987 24.04796 35888 ft 435 kts 309°
2026-04-20 16:51 46.89011 23.98142 35891 ft 437 kts 309°
2026-04-20 16:51 46.92997 23.91537 35893 ft 436 kts 309°
2026-04-20 16:52 46.97013 23.84866 35902 ft 437 kts 309°
2026-04-20 16:52 47.01011 23.78211 35895 ft 438 kts 309°
2026-04-20 16:53 47.05019 23.71522 35899 ft 437 kts 309°
2026-04-20 16:53 47.08988 23.64879 35897 ft 437 kts 309°
2026-04-20 16:54 47.12983 23.58175 35901 ft 437 kts 309°
2026-04-20 16:54 47.16962 23.51484 35903 ft 436 kts 309°
2026-04-20 16:55 47.20941 23.44775 35897 ft 437 kts 309°
2026-04-20 16:55 47.24893 23.38097 35905 ft 437 kts 309°
2026-04-20 16:56 47.28863 23.31372 35908 ft 436 kts 308°
2026-04-20 16:56 47.32825 23.24643 35908 ft 437 kts 308°
2026-04-20 16:57 47.36800 23.17875 35906 ft 437 kts 308°
2026-04-20 16:57 47.40754 23.11124 35903 ft 438 kts 308°
2026-04-20 16:58 47.44715 23.04346 35902 ft 437 kts 309°
2026-04-20 16:58 47.48663 22.97575 35908 ft 437 kts 308°
2026-04-20 16:59 47.52631 22.90750 35901 ft 438 kts 309°
2026-04-20 16:59 47.56564 22.83970 35908 ft 439 kts 309°
2026-04-20 17:00 47.62500 22.73701 35911 ft 439 kts 308°
2026-04-20 17:01 47.66456 22.66837 35912 ft 437 kts 309°
2026-04-20 17:01 47.70371 22.60026 35912 ft 439 kts 309°
2026-04-20 17:02 47.74334 22.53116 35916 ft 439 kts 309°
2026-04-20 17:02 47.78359 22.46394 35918 ft 439 kts 313°
2026-04-20 17:03 47.83134 22.40674 35924 ft 443 kts 323°
2026-04-20 17:03 47.88383 22.35832 35923 ft 445 kts 328°
2026-04-20 17:04 47.94081 22.32289 35928 ft 450 kts 339°
2026-04-20 17:04 48.00113 22.29659 35924 ft 452 kts 341°
2026-04-20 17:05 48.06133 22.27141 35923 ft 452 kts 341°
2026-04-20 17:05 48.12199 22.24519 35936 ft 452 kts 340°
2026-04-20 17:06 48.18193 22.21843 35940 ft 452 kts 340°
2026-04-20 17:06 48.24163 22.19126 35935 ft 451 kts 340°
2026-04-20 17:07 48.30151 22.16375 35946 ft 451 kts 340°
2026-04-20 17:07 48.36170 22.13594 35953 ft 453 kts 340°
2026-04-20 17:08 48.42167 22.10813 35954 ft 453 kts 340°
2026-04-20 17:08 48.48167 22.08023 35949 ft 453 kts 340°
2026-04-20 17:09 48.54179 22.05220 35957 ft 454 kts 340°
2026-04-20 17:09 48.60147 22.02431 35961 ft 453 kts 340°
2026-04-20 17:10 48.66180 21.99605 35964 ft 453 kts 340°
2026-04-20 17:10 48.72155 21.96798 35967 ft 453 kts 340°
2026-04-20 17:11 48.78142 21.93979 35968 ft 453 kts 340°
2026-04-20 17:11 48.84156 21.91141 35971 ft 453 kts 340°
2026-04-20 17:12 48.90175 21.88293 35971 ft 454 kts 340°
2026-04-20 17:12 48.96171 21.85449 35972 ft 455 kts 340°
2026-04-20 17:13 49.02193 21.82585 35968 ft 455 kts 340°
2026-04-20 17:13 49.08234 21.79707 35968 ft 454 kts 340°
2026-04-20 17:14 49.14244 21.76835 35976 ft 454 kts 340°
2026-04-20 17:14 49.20219 21.73971 35975 ft 455 kts 340°
2026-04-20 17:15 49.26267 21.71065 35973 ft 454 kts 340°
2026-04-20 17:15 49.32267 21.68176 35976 ft 455 kts 341°
2026-04-20 17:16 49.38296 21.65265 35970 ft 455 kts 341°
2026-04-20 17:16 49.44290 21.62363 35969 ft 454 kts 341°
2026-04-20 17:17 49.50292 21.59450 35971 ft 454 kts 341°
2026-04-20 17:17 49.56307 21.56524 35975 ft 454 kts 341°
2026-04-20 17:18 49.62315 21.53592 35984 ft 455 kts 341°
2026-04-20 17:18 49.68324 21.50654 35996 ft 455 kts 341°
2026-04-20 17:19 49.74360 21.47694 36005 ft 455 kts 341°
2026-04-20 17:19 49.80364 21.44742 36012 ft 455 kts 341°
2026-04-20 17:20 49.86354 21.41789 36006 ft 455 kts 341°
2026-04-20 17:20 49.92387 21.38807 36006 ft 456 kts 341°
2026-04-20 17:21 49.98420 21.35817 36016 ft 456 kts 341°
2026-04-20 17:21 50.04432 21.32832 36021 ft 456 kts 341°
2026-04-20 17:22 50.10459 21.29830 36025 ft 455 kts 341°
2026-04-20 17:22 50.16440 21.26843 36029 ft 455 kts 341°
2026-04-20 17:23 50.22443 21.23838 36031 ft 449 kts 341°
2026-04-20 17:23 50.25349 21.22382 36035 ft 432 kts 341°
2026-04-20 17:23 50.28173 21.20964 36035 ft 422 kts 341°
2026-04-20 17:24 50.33800 21.18130 36035 ft 431 kts 341°
2026-04-20 17:24 50.39484 21.15260 36036 ft 429 kts 341°
2026-04-20 17:25 50.45126 21.12404 36037 ft 429 kts 341°
2026-04-20 17:25 50.50782 21.09535 36035 ft 429 kts 341°
2026-04-20 17:26 50.56451 21.06653 35788 ft 430 kts 341°
2026-04-20 17:26 50.59277 21.05214 35579 ft 427 kts 341°
2026-04-20 17:26 50.62106 21.03770 35221 ft 424 kts 341°
2026-04-20 17:26 50.64873 21.02357 34664 ft 424 kts 341°
2026-04-20 17:27 50.67686 21.00917 34021 ft 426 kts 341°
2026-04-20 17:27 50.70500 20.99476 33491 ft 430 kts 341°
2026-04-20 17:27 50.73352 20.98014 32913 ft 435 kts 341°
2026-04-20 17:27 50.76197 20.96554 32415 ft 436 kts 341°
2026-04-20 17:28 50.79046 20.95090 32042 ft 431 kts 341°
2026-04-20 17:28 50.81879 20.93634 31622 ft 429 kts 341°
2026-04-20 17:28 50.84704 20.92179 31122 ft 425 kts 341°
2026-04-20 17:28 50.87499 20.90736 30589 ft 420 kts 342°
2026-04-20 17:29 50.90239 20.89319 30030 ft 414 kts 342°
2026-04-20 17:29 50.92922 20.87928 29311 ft 407 kts 342°
2026-04-20 17:29 50.95593 20.86541 28503 ft 403 kts 342°
2026-04-20 17:29 50.98211 20.85187 27707 ft 398 kts 342°
2026-04-20 17:30 51.00834 20.83824 26876 ft 393 kts 342°
2026-04-20 17:30 51.03409 20.82480 26062 ft 389 kts 342°
2026-04-20 17:30 51.05940 20.81160 25271 ft 384 kts 343°
2026-04-20 17:30 51.08443 20.79885 24550 ft 380 kts 345°
2026-04-20 17:31 51.10991 20.79032 24137 ft 373 kts 352°
2026-04-20 17:31 51.13576 20.78557 23868 ft 372 kts 355°
2026-04-20 17:31 51.16136 20.78202 23602 ft 373 kts 355°
2026-04-20 17:31 51.18727 20.77847 23332 ft 370 kts 355°
2026-04-20 17:32 51.21252 20.77475 23070 ft 369 kts 354°
2026-04-20 17:32 51.23797 20.77069 22766 ft 361 kts 354°
2026-04-20 17:32 51.26246 20.76653 22349 ft 355 kts 354°
2026-04-20 17:32 51.28692 20.76218 21865 ft 350 kts 354°
2026-04-20 17:33 51.31086 20.75780 21376 ft 347 kts 354°
2026-04-20 17:33 51.33456 20.75338 20887 ft 343 kts 353°
2026-04-20 17:33 51.35822 20.74889 20395 ft 340 kts 353°
2026-04-20 17:33 51.38132 20.74449 19912 ft 336 kts 353°
2026-04-20 17:34 51.40444 20.74006 19428 ft 333 kts 353°
2026-04-20 17:34 51.42713 20.73571 18957 ft 330 kts 353°
2026-04-20 17:34 51.44984 20.73136 18503 ft 326 kts 353°
2026-04-20 17:34 51.47206 20.72710 18037 ft 323 kts 353°
2026-04-20 17:35 51.49422 20.72285 17575 ft 320 kts 353°
2026-04-20 17:35 51.51629 20.71862 17111 ft 320 kts 354°
2026-04-20 17:35 51.53799 20.71446 16644 ft 319 kts 354°
2026-04-20 17:35 51.56021 20.71019 16174 ft 319 kts 354°
2026-04-20 17:36 51.58212 20.70598 15711 ft 318 kts 354°
2026-04-20 17:36 51.60383 20.70181 15252 ft 317 kts 354°
2026-04-20 17:36 51.62569 20.69760 14783 ft 317 kts 354°
2026-04-20 17:36 51.64760 20.69336 14307 ft 316 kts 354°
2026-04-20 17:37 51.66929 20.68919 13842 ft 313 kts 354°
2026-04-20 17:37 51.69046 20.68513 13389 ft 310 kts 354°
2026-04-20 17:37 51.71171 20.68102 12936 ft 307 kts 355°
2026-04-20 17:37 51.73293 20.67690 12473 ft 304 kts 355°
2026-04-20 17:38 51.75386 20.67284 12021 ft 301 kts 355°
2026-04-20 17:38 51.77434 20.66888 11575 ft 299 kts 355°
2026-04-20 17:38 51.79485 20.66492 11133 ft 296 kts 355°
2026-04-20 17:38 51.81513 20.66099 10690 ft 293 kts 355°
2026-04-20 17:39 51.83496 20.65713 10411 ft 285 kts 355°
2026-04-20 17:39 51.85424 20.65337 10283 ft 272 kts 355°
2026-04-20 17:39 51.87274 20.64977 10185 ft 260 kts 356°
2026-04-20 17:39 51.89035 20.64632 9957 ft 254 kts 356°
2026-04-20 17:40 51.90807 20.64288 9598 ft 258 kts 356°
2026-04-20 17:40 51.92583 20.63944 9269 ft 259 kts 356°
2026-04-20 17:40 51.94355 20.63600 8947 ft 260 kts 356°
2026-04-20 17:40 51.96149 20.63252 8619 ft 260 kts 356°
2026-04-20 17:41 51.97937 20.62901 8283 ft 257 kts 357°
2026-04-20 17:41 51.99707 20.62550 7948 ft 254 kts 357°
2026-04-20 17:41 52.01463 20.62203 7565 ft 254 kts 357°
2026-04-20 17:41 52.03198 20.61861 7235 ft 252 kts 358°
2026-04-20 17:42 52.04921 20.61521 6922 ft 250 kts 358°
2026-04-20 17:42 52.06647 20.61178 6598 ft 248 kts 358°
2026-04-20 17:42 52.08358 20.60836 6279 ft 246 kts 358°
2026-04-20 17:42 52.10045 20.60502 5970 ft 244 kts 358°
2026-04-20 17:43 52.11723 20.60173 5650 ft 242 kts 358°
2026-04-20 17:43 52.13388 20.59846 5344 ft 241 kts 358°
2026-04-20 17:43 52.15022 20.59525 5124 ft 237 kts 358°
2026-04-20 17:43 52.16627 20.59102 5037 ft 229 kts 350°
2026-04-20 17:44 52.18045 20.57948 4995 ft 239 kts 322°
2026-04-20 17:44 52.19010 20.55687 4930 ft 249 kts 299°
2026-04-20 17:44 52.19696 20.53084 4766 ft 248 kts 296°
2026-04-20 17:44 52.20351 20.50522 4654 ft 247 kts 296°
2026-04-20 17:45 52.21036 20.47961 4527 ft 246 kts 297°
2026-04-20 17:45 52.21778 20.45493 4385 ft 235 kts 309°
2026-04-20 17:45 52.22985 20.43957 4263 ft 212 kts 346°
2026-04-20 17:45 52.24359 20.43602 4165 ft 196 kts
2026-04-20 17:46 52.25658 20.43894 4063 ft 182 kts 21°
2026-04-20 17:46 52.26791 20.44666 3965 ft 171 kts 36°
2026-04-20 17:46 52.27695 20.45857 3860 ft 168 kts 51°
2026-04-20 17:46 52.28347 20.47422 3775 ft 166 kts 67°
2026-04-20 17:47 52.28664 20.49209 3694 ft 165 kts 82°
2026-04-20 17:47 52.28686 20.51102 3606 ft 166 kts 93°
2026-04-20 17:47 52.28497 20.52964 3552 ft 168 kts 101°
2026-04-20 17:47 52.28159 20.54770 3506 ft 169 kts 107°
2026-04-20 17:48 52.27728 20.56575 3449 ft 170 kts 109°
2026-04-20 17:48 52.27264 20.58345 3398 ft 170 kts 110°
2026-04-20 17:48 52.26788 20.60097 3349 ft 170 kts 110°
2026-04-20 17:48 52.26304 20.61855 3297 ft 170 kts 110°
2026-04-20 17:49 52.25817 20.63613 3247 ft 169 kts 111°
2026-04-20 17:49 52.25326 20.65383 3195 ft 170 kts 111°
2026-04-20 17:49 52.24847 20.67108 3145 ft 169 kts 111°
2026-04-20 17:49 52.24358 20.68871 3092 ft 169 kts 111°
2026-04-20 17:50 52.23872 20.70616 3013 ft 168 kts 111°
2026-04-20 17:50 52.23392 20.72343 3002 ft 169 kts 111°
2026-04-20 17:50 52.22907 20.74084 2998 ft 169 kts 111°
2026-04-20 17:50 52.22422 20.75823 2942 ft 165 kts 111°
2026-04-20 17:51 52.21957 20.77489 2691 ft 164 kts 110°
2026-04-20 17:51 52.21483 20.79184 2457 ft 163 kts 110°
2026-04-20 17:51 52.21019 20.80837 2234 ft 157 kts 110°
2026-04-20 17:51 52.20585 20.82387 2017 ft 145 kts 110°
2026-04-20 17:52 52.20189 20.83792 1856 ft 133 kts 109°
2026-04-20 17:52 52.19809 20.85151 1641 ft 128 kts 110°
2026-04-20 17:52 52.19436 20.86480 1481 ft 129 kts 110°
2026-04-20 17:52 52.19060 20.87806 1299 ft 130 kts 112°
2026-04-20 17:53 52.18682 20.89155 1141 ft 132 kts 111°
2026-04-20 17:53 52.18308 20.90522 944 ft 134 kts 111°
2026-04-20 17:53 52.17925 20.91901 765 ft 132 kts 112°
2026-04-20 17:53 52.17548 20.93244 583 ft 130 kts 112°
2026-04-20 17:54 52.17174 20.94571 413 ft 130 kts 112°
2026-04-20 17:54 52.16821 20.95840 343 ft 97 kts 115°
2026-04-20 17:54 52.16645 20.96470 333 ft 41 kts 114°
2026-04-20 17:54 52.16543 20.96833 333 ft 26 kts 109°
2026-04-20 17:55 52.16512 20.97058 334 ft 13 kts 93°
2026-04-20 17:55 52.16512 20.97148 336 ft 3 kts 88°
2026-04-20 17:55 52.16515 20.97236 336 ft 15 kts 86°
2026-04-20 17:55 52.16558 20.97355 336 ft 12 kts
2026-04-20 17:56 52.16637 20.97306 336 ft 12 kts 330°
2026-04-20 17:56 52.16721 20.97231 336 ft 15 kts 332°
2026-04-20 17:56 52.16822 20.97140 336 ft 17 kts 330°
2026-04-20 17:56 52.16931 20.97043 334 ft 18 kts 332°
2026-04-20 17:57 52.17037 20.96951 333 ft 15 kts 332°
2026-04-20 17:57 52.17132 20.96867 333 ft 15 kts 332°
2026-04-20 17:57 52.17225 20.96785 333 ft 15 kts 332°
2026-04-20 17:57 52.17318 20.96702 333 ft 15 kts 332°
2026-04-20 17:58 52.17410 20.96622 334 ft 14 kts 332°
2026-04-20 17:58 52.17491 20.96578 334 ft 11 kts 14°
2026-04-20 17:58 52.17536 20.96654 336 ft 8 kts 58°
2026-04-20 17:58 52.17568 20.96737 338 ft 9 kts 58°
2026-04-20 17:59 52.17610 20.96849 340 ft 12 kts 58°
2026-04-20 17:59 52.17653 20.96958 342 ft 10 kts 57°
2026-04-20 17:59 52.17685 20.97041 344 ft 8 kts 71°
2026-04-20 17:59 52.17642 20.97128 345 ft 13 kts 150°
2026-04-20 18:00 52.17556 20.97207 345 ft 12 kts 151°
2026-04-20 18:00 52.17508 20.97248 345 ft 0 kts 152°